This is the latest recevied weather packets stored in our database for station/object DL7MAP-13. If no packets are shown the sender has not sent any weather packets the latest 10 day(s).
| Time | Temp. | Humidity | Pressure | Rain* | Wind** | Luminosity | Snow |
|---|---|---|---|---|---|---|---|
| 1777672687 | 11.67° C | 67% | 1019.6 hPa | - | - | - | - |
| 1777670887 | 13.33° C | 62% | 1019.8 hPa | - | - | - | - |
| 1777669087 | 13.89° C | 57% | 1019.9 hPa | - | - | - | - |
| 1777667286 | 15.56° C | 52% | 1020.1 hPa | - | - | - | - |
| 1777660086 | 21.67° C | 35% | 1019.7 hPa | - | - | - | - |
| 1777659186 | 22.78° C | 32% | 1019.3 hPa | - | - | - | - |
| 1777656487 | 24.44° C | 28% | 1020.2 hPa | - | - | - | - |
| 1777654687 | 25.56° C | 27% | 1019.7 hPa | - | - | - | - |
| 1777653786 | 25.56° C | 28% | 1020.6 hPa | - | - | - | - |
| 1777652886 | 25.56° C | 27% | 1020.9 hPa | - | - | - | - |
| 1777651987 | 24.44° C | 28% | 1021.5 hPa | - | - | - | - |
| 1777651086 | 24.44° C | 27% | 1021.3 hPa | - | - | - | - |
| 1777650187 | 25° C | 27% | 1020.4 hPa | - | - | - | - |
| 1777649287 | 25.56° C | 26% | 1020.8 hPa | - | - | - | - |
| 1777648387 | 26.11° C | 25% | 1020.7 hPa | - | - | - | - |
| 1777645687 | 26.67° C | 25% | 1021.2 hPa | - | - | - | - |
| 1777644787 | 26.11° C | 25% | 1021.6 hPa | - | - | - | - |
| 1777643886 | 25.56° C | 25% | 1022.1 hPa | - | - | - | - |
| 1777642987 | 25° C | 28% | 1022.5 hPa | - | - | - | - |
| 1777642087 | 23.89° C | 30% | 1022.1 hPa | - | - | - | - |
| 1777641186 | 25° C | 29% | 1022.8 hPa | - | - | - | - |
| 1777640286 | 24.44° C | 30% | 1022.5 hPa | - | - | - | - |
| 1777639387 | 23.89° C | 30% | 1024.2 hPa | - | - | - | - |
| 1777638486 | 25° C | 30% | 1021.9 hPa | - | - | - | - |
| 1777637587 | 24.44° C | 31% | 1023.7 hPa | - | - | - | - |
* Rain since midnight (hover to see other rain measurements)
** Current wind speed in m/s (hover to see current wind gust speed)